Location: Huesca
(42.1318°N, 0.4078°W)
Time: 09:23:45
(UTC+02:00)

TIGRISAT - Pass Details

Date: 01 May 2024
Orbit: 594 x 672 km, 97.7° (Epoch: 21 May)

Event Time Altitude Azimuth Distance (km) Brightness Sun altitude
Rises 04:49:01 0° 126° (SE) 2,890 ? -20.6°
Reaches altitude 10° 04:51:50 10° 106° (ESE) 1,974 ? -20.2°
Maximum altitude 04:54:37 17° 65° (ENE) 1,549 ? -19.8°
Drops below altitude 10° 04:57:23 10° 25° (NNE) 1,958 ? -19.5°
Sets 05:00:09 0° 5° (N) 2,857 ? -19.1°
